Regional Weather Roundup
Issued by NWS

Home | Current Version | Previous Version | Text Only | Print | Product List | Glossary Off
Versions: 1 2 3 4 5 6 7 8 9 10 11 12 13 14 15 16 17 18 19 20 21 22 23 24 25 26 27 28 29 30 31 32 33 34 35 36 37 38 39 40 41 42 43 44 45 46 47 48 49 50

000
ASUS43 KBIS 290210
RWRND

NORTH DAKOTA REGIONAL WEATHER ROUNDUP
NATIONAL WEATHER SERVICE BISMARCK ND
900 PM CDT THU MAY 28 2015

NOTE: "FAIR" INDICATES FEW OR NO CLOUDS BELOW 12,000 FEET WITH NO
SIGNIFICANT WEATHER AND/OR OBSTRUCTIONS TO VISIBILITY.


NDZ001>003-009>011-017-290300-
NORTHWEST NORTH DAKOTA

CITY           SKY/WX    TMP DP  RH WIND       PRES   REMARKS
WILLISTON      CLOUDY    60  48  64 N29G35    30.01R
MINOT          PTCLDY    65  54  67 NW9       29.91R
MINOT AFB      MOCLDY    66  64  91 N18G25    29.92R
$$

NDZ018>021-031>035-040>046-290300-
SOUTHWEST NORTH DAKOTA

CITY           SKY/WX    TMP DP  RH WIND       PRES   REMARKS
BISMARCK       CLOUDY    71  54  54 N12       29.85F
DICKINSON      CLOUDY    65  54  67 N9        29.91R
GARRISON         N/A     67  56  67 N7        29.91R
HETTINGER ARPT CLOUDY    59  56  89 S7        29.93R
$$

NDZ004>008-012>016-024-026-027-054-290300-
NORTHEAST NORTH DAKOTA

CITY           SKY/WX    TMP DP  RH WIND       PRES   REMARKS
GRAND FORKS    CLOUDY    67  61  81 SE3       29.78F
GRND FRKS AFB  MOCLDY    68  62  82 NE3       29.80R
DEVILS LAKE    CLOUDY    70  55  60 N17       29.85R
$$

NDZ022-023-025-028>030-036>039-047>053-290300-
SOUTHEAST NORTH DAKOTA

CITY           SKY/WX    TMP DP  RH WIND       PRES   REMARKS
FARGO          CLOUDY    64  61  90 NW3       29.79R
JAMESTOWN      CLOUDY    71  59  65 N16       29.79F
$$



USA.gov is the U.S. government's official web portal to all federal, state and local government web resources and services.